• In Russia
  • List of Countries
  • For 7 days
  • Water Temperature
  • Satellite Maps
  • Weather Map
  • Weather Widgets
  • user-avatar
    Login

    Hourly Weather Newcastle

    Today, 21 October, Saturday

    Time Temperature Precipitation Wind Pressure Humidity
    00:00 +12°C° 0.8 mm 7 mps 735 mmHg 91%
    01:00 +11°C° 0.2 mm 7 mps 735 mmHg 90%
    02:00 +11°C° 0.2 mm 6 mps 734 mmHg 89%
    03:00 +10°C° 0.2 mm 6 mps 734 mmHg 87%
    04:00 +10°C° 0 mm 6 mps 734 mmHg 86%
    05:00 +9°C° 0 mm 7 mps 734 mmHg 84%
    06:00 +9°C° 0 mm 7 mps 733 mmHg 83%
    07:00 +9°C° 0 mm 8 mps 733 mmHg 81%
    08:00 +10°C° 0 mm 9 mps 732 mmHg 79%
    09:00 +9°C° 0 mm 10 mps 732 mmHg 77%
    10:00 +9°C° 0.3 mm 10 mps 731 mmHg 77%
    11:00 +11°C° 0.3 mm 11 mps 731 mmHg 76%
    12:00 +11°C° 0.3 mm 11 mps 730 mmHg 76%
    13:00 +11°C° 0.5 mm 11 mps 730 mmHg 78%
    14:00 +11°C° 0.5 mm 10 mps 729 mmHg 80%
    15:00 +11°C° 0.5 mm 10 mps 729 mmHg 81%
    16:00 +11°C° 1.8 mm 10 mps 730 mmHg 83%
    17:00 +9°C° 1.8 mm 10 mps 730 mmHg 84%
    18:00 +9°C° 1.8 mm 10 mps 731 mmHg 85%
    19:00 +9°C° 0.4 mm 10 mps 732 mmHg 84%
    20:00 +9°C° 0.4 mm 10 mps 732 mmHg 83%
    21:00 +8°C° 0.4 mm 9 mps 733 mmHg 81%
    22:00 +8°C° 0.4 mm 10 mps 734 mmHg 82%
    23:00 +8°C° 0.4 mm 10 mps 735 mmHg 83%

    Tomorrow, 22 October, Sunday

    Time Temperature Precipitation Wind Pressure Humidity
    00:00 +8°C° 0.4 mm 10 mps 736 mmHg 83%
    01:00 +8°C° 1 mm 10 mps 737 mmHg 82%
    02:00 +7°C° 1 mm 10 mps 737 mmHg 81%
    03:00 +7°C° 1 mm 10 mps 738 mmHg 80%
    04:00 +7°C° 0.3 mm 10 mps 739 mmHg 81%
    05:00 +7°C° 0.3 mm 10 mps 740 mmHg 81%
    06:00 +7°C° 0.3 mm 9 mps 740 mmHg 82%
    07:00 +7°C° 0.3 mm 9 mps 741 mmHg 80%
    08:00 +7°C° 0.3 mm 9 mps 742 mmHg 79%
    09:00 +7°C° 0.3 mm 9 mps 742 mmHg 78%
    10:00 +7°C° 0 mm 9 mps 743 mmHg 75%
    11:00 +8°C° 0 mm 9 mps 744 mmHg 72%
    12:00 +8°C° 0 mm 9 mps 744 mmHg 69%
    13:00 +10°C° 0.1 mm 9 mps 745 mmHg 70%
    14:00 +10°C° 0.1 mm 8 mps 745 mmHg 71%
    15:00 +10°C° 0.1 mm 8 mps 746 mmHg 72%
    16:00 +9°C° 0.1 mm 7 mps 746 mmHg 74%
    17:00 +9°C° 0.1 mm 7 mps 746 mmHg 77%
    18:00 +8°C° 0.1 mm 6 mps 746 mmHg 79%
    19:00 +8°C° 0 mm 6 mps 747 mmHg 80%
    20:00 +8°C° 0 mm 5 mps 747 mmHg 81%
    21:00 +8°C° 0 mm 5 mps 747 mmHg 83%
    22:00 +8°C° 0 mm 5 mps 748 mmHg 84%
    23:00 +8°C° 0 mm 4 mps 748 mmHg 86%

    Day after tomorrow, 23 October, Monday

    Time Temperature Precipitation Wind Pressure Humidity
    00:00 +8°C° 0 mm 4 mps 748 mmHg 87%
    01:00 +8°C° 0.1 mm 4 mps 748 mmHg 89%
    02:00 +8°C° 0.1 mm 4 mps 747 mmHg 91%
    03:00 +10°C° 0.1 mm 3 mps 747 mmHg 92%
    04:00 +10°C° 0.1 mm 3 mps 747 mmHg 93%
    05:00 +10°C° 0.1 mm 3 mps 747 mmHg 94%
    06:00 +11°C° 0.1 mm 4 mps 746 mmHg 94%
    07:00 +11°C° 0.3 mm 4 mps 746 mmHg 94%
    08:00 +12°C° 0.3 mm 4 mps 746 mmHg 95%
    09:00 +12°C° 0.3 mm 4 mps 746 mmHg 95%
    10:00 +13°C° 0.1 mm 4 mps 746 mmHg 92%
    11:00 +15°C° 0.1 mm 4 mps 746 mmHg 89%
    12:00 +16°C° 0.1 mm 5 mps 746 mmHg 86%
    13:00 +16°C° 0.1 mm 5 mps 747 mmHg 85%
    14:00 +17°C° 0.1 mm 4 mps 747 mmHg 84%
    15:00 +17°C° 0.1 mm 4 mps 747 mmHg 83%
    16:00 +15°C° 0 mm 4 mps 747 mmHg 86%
    17:00 +13°C° 0 mm 3 mps 747 mmHg 89%
    18:00 +12°C° 0 mm 3 mps 748 mmHg 92%
    19:00 +13°C° 0 mm 2 mps 748 mmHg 92%
    20:00 +12°C° 0 mm 2 mps 748 mmHg 93%
    21:00 +12°C° 0 mm 2 mps 748 mmHg 93%
    22:00 +11°C° 0 mm 3 mps 748 mmHg 92%
    23:00 +11°C° 0 mm 3 mps 748 mmHg 91%

    24 October, Tuesday

    Time Temperature Precipitation Wind Pressure Humidity
    00:00 +11°C° 0 mm 3 mps 748 mmHg 90%
    01:00 +12°C° 0.1 mm 4 mps 748 mmHg 92%
    02:00 +13°C° 0.1 mm 4 mps 748 mmHg 93%
    03:00 +13°C° 0.1 mm 4 mps 747 mmHg 94%
    04:00 +14°C° 0.5 mm 5 mps 747 mmHg 94%
    05:00 +15°C° 0.5 mm 5 mps 747 mmHg 93%
    06:00 +15°C° 0.5 mm 6 mps 747 mmHg 93%
    07:00 +15°C° 0.2 mm 5 mps 748 mmHg 92%
    08:00 +15°C° 0.2 mm 5 mps 748 mmHg 92%
    09:00 +15°C° 0.2 mm 5 mps 748 mmHg 91%
    10:00 +16°C° 0.4 mm 5 mps 748 mmHg 91%
    11:00 +16°C° 0.4 mm 5 mps 748 mmHg 91%
    12:00 +16°C° 0.4 mm 5 mps 748 mmHg 91%
    13:00 +16°C° 1 mm 5 mps 748 mmHg 91%
    14:00 +16°C° 1 mm 5 mps 748 mmHg 90%
    15:00 +16°C° 1 mm 5 mps 748 mmHg 90%
    16:00 +16°C° 0.4 mm 5 mps 748 mmHg 90%
    17:00 +15°C° 0.4 mm 5 mps 748 mmHg 91%
    18:00 +15°C° 0.4 mm 5 mps 748 mmHg 91%
    19:00 +15°C° 0.2 mm 5 mps 749 mmHg 92%
    20:00 +15°C° 0.2 mm 4 mps 749 mmHg 92%
    21:00 +15°C° 0.2 mm 4 mps 749 mmHg 93%
    22:00 +15°C° 0.2 mm 4 mps 749 mmHg 93%
    23:00 +15°C° 0.2 mm 4 mps 749 mmHg 94%

    25 October, Wednesday

    Time Temperature Precipitation Wind Pressure Humidity
    00:00 +15°C° 0.2 mm 4 mps 750 mmHg 94%
    01:00 +15°C° 0.1 mm 4 mps 750 mmHg 94%
    02:00 +14°C° 0.1 mm 4 mps 749 mmHg 94%
    03:00 +14°C° 0.1 mm 4 mps 749 mmHg 94%
    04:00 +14°C° 0.3 mm 4 mps 750 mmHg 95%
    05:00 +14°C° 0.3 mm 4 mps 750 mmHg 95%
    06:00 +14°C° 0.3 mm 3 mps 750 mmHg 95%
    07:00 +14°C° 0.1 mm 3 mps 750 mmHg 94%
    08:00 +14°C° 0.1 mm 3 mps 751 mmHg 94%
    09:00 +14°C° 0.1 mm 3 mps 751 mmHg 93%
    10:00 +14°C° 0.5 mm 3 mps 751 mmHg 92%
    11:00 +16°C° 0.5 mm 3 mps 751 mmHg 90%
    12:00 +16°C° 0.5 mm 2 mps 751 mmHg 89%
    13:00 +16°C° 0 mm 2 mps 751 mmHg 88%
    14:00 +17°C° 0 mm 2 mps 751 mmHg 86%
    15:00 +17°C° 0 mm 2 mps 751 mmHg 85%
    16:00 +16°C° 0 mm 2 mps 751 mmHg 87%
    17:00 +15°C° 0 mm 2 mps 751 mmHg 89%
    18:00 +15°C° 0 mm 2 mps 751 mmHg 91%
    19:00 +14°C° 0 mm 2 mps 751 mmHg 92%
    20:00 +14°C° 0 mm 2 mps 751 mmHg 93%
    21:00 +13°C° 0 mm 2 mps 752 mmHg 93%
    22:00 +13°C° 0 mm 2 mps 751 mmHg 93%
    23:00 +13°C° 0 mm 2 mps 751 mmHg 94%

    26 October, Thursday

    Time Temperature Precipitation Wind Pressure Humidity
    00:00 +12°C° 0 mm 2 mps 751 mmHg 94%
    01:00 +12°C° 0 mm 2 mps 751 mmHg 94%
    02:00 +12°C° 0 mm 2 mps 751 mmHg 94%
    03:00 +10°C° 0 mm 2 mps 750 mmHg 94%
    04:00 +10°C° 0 mm 2 mps 750 mmHg 94%
    05:00 +10°C° 0 mm 2 mps 750 mmHg 94%
    06:00 +10°C° 0 mm 2 mps 751 mmHg 94%
    07:00 +12°C° 0 mm 2 mps 751 mmHg 93%
    08:00 +13°C° 0 mm 2 mps 751 mmHg 92%
    09:00 +14°C° 0 mm 2 mps 751 mmHg 91%
    10:00 +14°C° 0 mm 3 mps 751 mmHg 89%
    11:00 +16°C° 0 mm 3 mps 751 mmHg 86%
    12:00 +18°C° 0 mm 3 mps 751 mmHg 84%
    13:00 +18°C° 0 mm 3 mps 751 mmHg 83%
    14:00 +18°C° 0 mm 3 mps 750 mmHg 83%
    15:00 +19°C° 0 mm 3 mps 750 mmHg 82%
    16:00 +18°C° 0 mm 3 mps 750 mmHg 86%
    17:00 +17°C° 0 mm 3 mps 750 mmHg 89%
    18:00 +14°C° 0 mm 3 mps 751 mmHg 92%
    19:00 +14°C° 0 mm 3 mps 751 mmHg 92%
    20:00 +14°C° 0 mm 3 mps 751 mmHg 92%
    21:00 +14°C° 0 mm 3 mps 751 mmHg 92%
    22:00 +13°C° 0 mm 3 mps 751 mmHg 92%
    23:00 +13°C° 0 mm 3 mps 751 mmHg 91%
    Show more